This is the latest recevied weather packets stored in our database for station/object VA3WWD-2. If no packets are shown the sender has not sent any weather packets the latest 10 day(s).
| Time | Temp. | Humidity | Pressure | Rain* | Wind** | Luminosity | Snow |
|---|---|---|---|---|---|---|---|
| 1778169424 | 6.11° C | 39% | - | 0 mm | 0 m/s | - | - |
| 1778169126 | 6.11° C | 39% | - | 0 mm | 0 m/s | - | - |
| 1778168825 | 7.22° C | 36% | - | 0 mm | 0 m/s | - | - |
| 1778168527 | 7.78° C | 36% | - | 0 mm | 0 m/s | - | - |
| 1778168229 | 7.22° C | 37% | - | 0 mm | 0 m/s | - | - |
| 1778167928 | 7.22° C | 35% | - | 0 mm | 0 m/s | - | - |
| 1778167630 | 6.67° C | 36% | - | 0 mm | 0 m/s | - | - |
| 1778167332 | 7.22° C | 41% | - | 0 mm | 0 m/s | - | - |
| 1778167031 | 5.56° C | 39% | - | 0 mm | 0 m/s | - | - |
| 1778166733 | 5.56° C | 40% | - | 0 mm | 0 m/s | - | - |
| 1778166435 | 6.11° C | 38% | - | 0 mm | 0 m/s | - | - |
| 1778166134 | 6.11° C | 40% | - | 0 mm | 0 m/s | - | - |
| 1778165836 | 6.11° C | 40% | - | 0 mm | 0 m/s | - | - |
| 1778165538 | 6.67° C | 38% | - | 0 mm | 0 m/s | - | - |
| 1778165237 | 6.67° C | 40% | - | 0 mm | 0 m/s | - | - |
| 1778164939 | 6.11° C | 39% | - | 0 mm | 0 m/s | - | - |
| 1778164641 | 5.56° C | 39% | - | 0 mm | 0 m/s | - | - |
| 1778164340 | 5.56° C | 42% | - | 0 mm | 0 m/s | - | - |
| 1778164042 | 5.56° C | 44% | - | 0 mm | 0 m/s | - | - |
| 1778163744 | 6.11° C | 43% | - | 0 mm | 0 m/s | - | - |
| 1778163443 | 6.11° C | 45% | - | 0 mm | 0 m/s | - | - |
| 1778163145 | 5.56° C | 44% | - | 0 mm | 0 m/s | - | - |
| 1778162546 | 5.56° C | 46% | - | 0 mm | 0 m/s | - | - |
| 1778161950 | 3.89° C | 48% | - | 0 mm | 0 m/s | - | - |
| 1778161649 | 5° C | 50% | - | 0 mm | 0 m/s | - | - |
* Rain latest hour (hover to see other rain measurements)
** Current wind speed in m/s (hover to see current wind gust speed)